NPT592 EGNX-EHAM

Flight info

Callsign NPT592
Flight time 0h 50m
Altitude 35000
Route SAPCO Y53 DTY P166 BANTO P155 SIVDA P137 REDFA
Aircraft B738/M-SDE2E3FGHIRWXY/LB1

Departure

Time 2026-05-07 18:49
Airport East Midlands Airport (EGNX)

Arrival

Time 2026-05-07 19:39
Airport Amsterdam Airport Schiphol (EHAM)
Time Latitude Longitude Altitude Speed Heading
2026-05-07 17:57 52.82742 -1.35488 299 ft 0 kts 178°
2026-05-07 18:40 52.82754 -1.35489 299 ft 4 kts 178°
2026-05-07 18:41 52.82776 -1.35490 299 ft 3 kts 177°
2026-05-07 18:41 52.82801 -1.35499 299 ft 4 kts 144°
2026-05-07 18:41 52.82814 -1.35530 300 ft 4 kts 91°
2026-05-07 18:41 52.82814 -1.35571 299 ft 3 kts 88°
2026-05-07 18:42 52.82813 -1.35577 299 ft 0 kts 88°
2026-05-07 18:45 52.82814 -1.35576 299 ft 0 kts 88°
2026-05-07 18:45 52.82814 -1.35556 299 ft 4 kts 88°
2026-05-07 18:45 52.82816 -1.35470 300 ft 11 kts 87°
2026-05-07 18:46 52.82819 -1.35315 299 ft 14 kts 85°
2026-05-07 18:46 52.82878 -1.35249 303 ft 12 kts 40°
2026-05-07 18:46 52.82895 -1.35093 302 ft 17 kts 88°
2026-05-07 18:46 52.82902 -1.34969 304 ft 10 kts 65°
2026-05-07 18:47 52.82926 -1.34939 305 ft 2 kts 11°
2026-05-07 18:47 52.82953 -1.34938 305 ft 6 kts
2026-05-07 18:47 52.83010 -1.34938 304 ft 11 kts 359°
2026-05-07 18:47 52.83065 -1.34915 305 ft 7 kts 74°
2026-05-07 18:48 52.83064 -1.34855 304 ft 0 kts 85°
2026-05-07 18:48 52.83065 -1.34813 303 ft 12 kts 87°
2026-05-07 18:48 52.83072 -1.34416 300 ft 75 kts 88°
2026-05-07 18:49 52.83093 -1.33081 313 ft 153 kts 87°
2026-05-07 18:49 52.83148 -1.31271 1242 ft 152 kts 88°
2026-05-07 18:49 52.83133 -1.29452 2227 ft 162 kts 101°
2026-05-07 18:49 52.82975 -1.27412 2794 ft 198 kts 99°
2026-05-07 18:50 52.82794 -1.24961 3101 ft 228 kts 103°
2026-05-07 18:50 52.82165 -1.22456 3522 ft 249 kts 128°
2026-05-07 18:50 52.80985 -1.20288 4352 ft 258 kts 135°
2026-05-07 18:50 52.79732 -1.18145 5511 ft 261 kts 136°
2026-05-07 18:51 52.78440 -1.15960 6503 ft 270 kts 139°
2026-05-07 18:51 52.76802 -1.14517 7487 ft 270 kts 173°
2026-05-07 18:51 52.74971 -1.14901 8525 ft 270 kts 205°
2026-05-07 18:51 52.73486 -1.16751 8953 ft 269 kts 226°
2026-05-07 18:52 52.72136 -1.18960 8984 ft 275 kts 223°
2026-05-07 18:52 52.70705 -1.21045 8987 ft 273 kts 221°
2026-05-07 18:52 52.69268 -1.23007 8996 ft 271 kts 220°
2026-05-07 18:52 52.67777 -1.24991 8994 ft 272 kts 219°
2026-05-07 18:53 52.66315 -1.26909 8996 ft 273 kts 219°
2026-05-07 18:53 52.64829 -1.28848 8992 ft 273 kts 219°
2026-05-07 18:53 52.63349 -1.30808 8991 ft 273 kts 219°
2026-05-07 18:53 52.61837 -1.32760 8995 ft 273 kts 219°
2026-05-07 18:54 52.60339 -1.34668 8994 ft 272 kts 216°
2026-05-07 18:54 52.58674 -1.36054 8998 ft 274 kts 199°
2026-05-07 18:54 52.56770 -1.36535 9493 ft 281 kts 182°
2026-05-07 18:54 52.54827 -1.36192 10505 ft 286 kts 168°
2026-05-07 18:55 52.52857 -1.35106 10872 ft 313 kts 161°
2026-05-07 18:55 52.50761 -1.33693 11236 ft 335 kts 159°
2026-05-07 18:55 52.48589 -1.32169 12038 ft 342 kts 159°
2026-05-07 18:55 52.46399 -1.30632 13025 ft 344 kts 159°
2026-05-07 18:56 52.44188 -1.29097 14006 ft 346 kts 159°
2026-05-07 18:56 52.41948 -1.27558 14866 ft 352 kts 159°
2026-05-07 18:56 52.39667 -1.26004 15698 ft 358 kts 159°
2026-05-07 18:56 52.37347 -1.24431 16532 ft 363 kts 159°
2026-05-07 18:57 52.34994 -1.22840 17361 ft 369 kts 159°
2026-05-07 18:57 52.32602 -1.21223 18181 ft 375 kts 159°
2026-05-07 18:57 52.30175 -1.19585 18907 ft 380 kts 159°
2026-05-07 18:57 52.27718 -1.17931 19641 ft 384 kts 160°
2026-05-07 18:58 52.25237 -1.16255 20356 ft 389 kts 158°
2026-05-07 18:58 52.22950 -1.13829 21017 ft 400 kts 138°
2026-05-07 18:58 52.21294 -1.10145 21738 ft 409 kts 118°
2026-05-07 18:58 52.20482 -1.05678 22422 ft 418 kts 97°
2026-05-07 18:59 52.20648 -1.00930 23073 ft 425 kts 77°
2026-05-07 18:59 52.21687 -0.96391 23711 ft 430 kts 66°
2026-05-07 18:59 52.22912 -0.91927 24234 ft 434 kts 66°
2026-05-07 18:59 52.24127 -0.87400 24752 ft 438 kts 67°
2026-05-07 19:00 52.25241 -0.82755 25264 ft 441 kts 72°
2026-05-07 19:00 52.26155 -0.77951 25787 ft 445 kts 74°
2026-05-07 19:00 52.27003 -0.73077 26286 ft 448 kts 75°
2026-05-07 19:00 52.27844 -0.68151 26763 ft 452 kts 75°
2026-05-07 19:01 52.28689 -0.63263 27319 ft 453 kts 75°
2026-05-07 19:01 52.29561 -0.58306 27875 ft 455 kts 74°
2026-05-07 19:01 52.30448 -0.53323 28263 ft 460 kts 74°
2026-05-07 19:01 52.31349 -0.48294 28745 ft 462 kts 74°
2026-05-07 19:02 52.32250 -0.43270 29408 ft 460 kts 74°
2026-05-07 19:02 52.33144 -0.38274 30131 ft 456 kts 74°
2026-05-07 19:02 52.34029 -0.33302 30625 ft 457 kts 74°
2026-05-07 19:02 52.34916 -0.28290 30853 ft 460 kts 74°
2026-05-07 19:03 52.35654 -0.23207 31042 ft 459 kts 82°
2026-05-07 19:03 52.35809 -0.12829 31055 ft 453 kts 93°
2026-05-07 19:04 52.35634 -0.02526 31055 ft 454 kts 92°
2026-05-07 19:04 52.35327 0.07771 31061 ft 453 kts 98°
2026-05-07 19:05 52.34407 0.17962 31059 ft 453 kts 101°
2026-05-07 19:05 52.33409 0.28126 31070 ft 452 kts 101°
2026-05-07 19:06 52.32454 0.38275 31080 ft 451 kts 100°
2026-05-07 19:06 52.31065 0.53465 31069 ft 450 kts 100°
2026-05-07 19:07 52.30139 0.63561 31075 ft 449 kts 100°
2026-05-07 19:07 52.29204 0.73638 31083 ft 448 kts 100°
2026-05-07 19:08 52.28260 0.83699 31084 ft 448 kts 100°
2026-05-07 19:08 52.27305 0.93773 31048 ft 451 kts 100°
2026-05-07 19:09 52.26817 0.98884 30769 ft 458 kts 100°
2026-05-07 19:09 52.26326 1.04003 30533 ft 455 kts 100°
2026-05-07 19:09 52.25839 1.09071 30282 ft 450 kts 100°
2026-05-07 19:09 52.25353 1.14098 30018 ft 448 kts 100°
2026-05-07 19:10 52.24866 1.19114 29727 ft 447 kts 101°
2026-05-07 19:10 52.24378 1.24111 29448 ft 445 kts 101°
2026-05-07 19:10 52.23889 1.29100 29164 ft 444 kts 101°
2026-05-07 19:10 52.23400 1.34065 28884 ft 443 kts 101°
2026-05-07 19:11 52.22910 1.39011 28606 ft 441 kts 101°
2026-05-07 19:11 52.22421 1.43935 28336 ft 439 kts 101°
2026-05-07 19:11 52.21930 1.48846 28055 ft 438 kts 101°
2026-05-07 19:11 52.21441 1.53731 27779 ft 435 kts 101°
2026-05-07 19:12 52.20953 1.58578 27515 ft 433 kts 101°
2026-05-07 19:12 52.20465 1.63406 27248 ft 430 kts 101°
2026-05-07 19:12 52.19978 1.68200 26984 ft 428 kts 101°
2026-05-07 19:12 52.19492 1.72973 26723 ft 426 kts 101°
2026-05-07 19:13 52.19006 1.77719 26466 ft 424 kts 101°
2026-05-07 19:13 52.18521 1.82436 26208 ft 422 kts 101°
2026-05-07 19:13 52.18034 1.87147 25952 ft 420 kts 101°
2026-05-07 19:13 52.17549 1.91832 25704 ft 419 kts 101°
2026-05-07 19:14 52.17063 1.96501 25447 ft 417 kts 101°
2026-05-07 19:14 52.16577 2.01154 25204 ft 416 kts 101°
2026-05-07 19:14 52.16092 2.05785 24958 ft 414 kts 101°
2026-05-07 19:14 52.15606 2.10399 24716 ft 413 kts 101°
2026-05-07 19:15 52.15121 2.14994 24475 ft 411 kts 101°
2026-05-07 19:15 52.14636 2.19569 24236 ft 409 kts 101°
2026-05-07 19:15 52.14158 2.24067 24002 ft 408 kts 101°
2026-05-07 19:15 52.13673 2.28608 23768 ft 407 kts 101°
2026-05-07 19:16 52.13190 2.33132 23508 ft 405 kts 101°
2026-05-07 19:16 52.12706 2.37638 23229 ft 403 kts 101°
2026-05-07 19:16 52.12221 2.42117 23113 ft 402 kts 101°
2026-05-07 19:16 52.11885 2.46622 23070 ft 402 kts 89°
2026-05-07 19:17 52.12374 2.51072 22886 ft 401 kts 70°
2026-05-07 19:17 52.13645 2.55102 22499 ft 398 kts 59°
2026-05-07 19:17 52.15054 2.58963 22119 ft 396 kts 59°
2026-05-07 19:17 52.16475 2.62796 21757 ft 394 kts 59°
2026-05-07 19:18 52.17883 2.66602 21397 ft 390 kts 59°
2026-05-07 19:18 52.19267 2.70375 21062 ft 387 kts 59°
2026-05-07 19:18 52.20641 2.74151 20721 ft 388 kts 59°
2026-05-07 19:18 52.22009 2.77934 20378 ft 386 kts 59°
2026-05-07 19:19 52.23365 2.81702 20036 ft 383 kts 60°
2026-05-07 19:19 52.24708 2.85445 19697 ft 382 kts 60°
2026-05-07 19:19 52.26043 2.89173 19373 ft 380 kts 60°
2026-05-07 19:19 52.27371 2.92887 19031 ft 378 kts 60°
2026-05-07 19:20 52.28694 2.96595 18704 ft 377 kts 60°
2026-05-07 19:20 52.30011 3.00288 18360 ft 376 kts 60°
2026-05-07 19:20 52.31322 3.03973 17983 ft 374 kts 60°
2026-05-07 19:20 52.32625 3.07639 17627 ft 372 kts 60°
2026-05-07 19:21 52.33920 3.11287 17283 ft 370 kts 60°
2026-05-07 19:21 52.35205 3.14910 16956 ft 367 kts 60°
2026-05-07 19:21 52.36484 3.18523 16632 ft 365 kts 60°
2026-05-07 19:21 52.37744 3.22089 16363 ft 359 kts 60°
2026-05-07 19:22 52.38985 3.25604 16104 ft 357 kts 60°
2026-05-07 19:22 52.40232 3.29142 15856 ft 360 kts 60°
2026-05-07 19:22 52.41489 3.32709 15603 ft 362 kts 60°
2026-05-07 19:22 52.42321 3.35072 15439 ft 361 kts 60°
2026-05-07 19:23 52.43565 3.38615 15185 ft 357 kts 60°
2026-05-07 19:23 52.44796 3.42130 14938 ft 356 kts 60°
2026-05-07 19:23 52.46020 3.45633 14694 ft 352 kts 60°
2026-05-07 19:23 52.47227 3.49105 14354 ft 350 kts 60°
2026-05-07 19:24 52.48836 3.53757 13609 ft 354 kts 60°
2026-05-07 19:24 52.50038 3.57243 13225 ft 348 kts 60°
2026-05-07 19:24 52.50823 3.59576 13004 ft 343 kts 64°
2026-05-07 19:24 52.51612 3.63218 12708 ft 337 kts 77°
2026-05-07 19:25 52.51921 3.67009 12413 ft 333 kts 88°
2026-05-07 19:25 52.52006 3.70799 12122 ft 332 kts 89°
2026-05-07 19:25 52.52072 3.74597 11832 ft 334 kts 89°
2026-05-07 19:25 52.52142 3.78435 11537 ft 337 kts 89°
2026-05-07 19:26 52.52221 3.82265 11224 ft 334 kts 89°
2026-05-07 19:26 52.52305 3.86027 10935 ft 325 kts 88°
2026-05-07 19:26 52.52389 3.89681 10652 ft 316 kts 89°
2026-05-07 19:26 52.52468 3.93241 10387 ft 308 kts 88°
2026-05-07 19:27 52.52467 3.96720 10099 ft 301 kts 99°
2026-05-07 19:27 52.51854 3.99898 10064 ft 284 kts 112°
2026-05-07 19:27 52.51120 4.02830 9676 ft 283 kts 113°
2026-05-07 19:27 52.50366 4.05831 9358 ft 279 kts 113°
2026-05-07 19:28 52.49648 4.08712 9083 ft 274 kts 113°
2026-05-07 19:28 52.48938 4.11582 8835 ft 269 kts 113°
2026-05-07 19:28 52.48237 4.14424 8596 ft 269 kts 113°
2026-05-07 19:28 52.47539 4.17265 8359 ft 268 kts 114°
2026-05-07 19:29 52.46842 4.20101 8120 ft 268 kts 114°
2026-05-07 19:29 52.46148 4.22929 7878 ft 267 kts 114°
2026-05-07 19:29 52.45453 4.25760 7600 ft 268 kts 113°
2026-05-07 19:29 52.44755 4.28596 7353 ft 268 kts 114°
2026-05-07 19:30 52.44058 4.31423 7107 ft 267 kts 114°
2026-05-07 19:30 52.43362 4.34240 6869 ft 266 kts 114°
2026-05-07 19:30 52.42413 4.36791 6613 ft 262 kts 139°
2026-05-07 19:30 52.40864 4.38219 6391 ft 255 kts 166°
2026-05-07 19:31 52.39114 4.38477 6155 ft 252 kts 184°
2026-05-07 19:31 52.37369 4.38250 5926 ft 251 kts 186°
2026-05-07 19:31 52.35638 4.37995 5698 ft 249 kts 186°
2026-05-07 19:31 52.33918 4.37750 5472 ft 247 kts 185°
2026-05-07 19:32 52.32208 4.37518 5247 ft 246 kts 185°
2026-05-07 19:32 52.30496 4.37295 5025 ft 247 kts 185°
2026-05-07 19:32 52.28782 4.37075 4815 ft 246 kts 184°
2026-05-07 19:32 52.27088 4.36859 4582 ft 242 kts 184°
2026-05-07 19:33 52.25424 4.36703 4353 ft 237 kts 176°
2026-05-07 19:33 52.23909 4.37577 4144 ft 232 kts 143°
2026-05-07 19:33 52.22842 4.39496 3956 ft 228 kts 121°
2026-05-07 19:33 52.22129 4.41771 3769 ft 224 kts 116°
2026-05-07 19:34 52.21479 4.44062 3564 ft 221 kts 115°
2026-05-07 19:34 52.20912 4.46363 3363 ft 218 kts 102°
2026-05-07 19:34 52.20824 4.48775 3208 ft 209 kts 91°
2026-05-07 19:34 52.20797 4.51081 3011 ft 198 kts 91°
2026-05-07 19:35 52.21033 4.53179 2898 ft 185 kts 61°
2026-05-07 19:35 52.21785 4.54879 2683 ft 186 kts 60°
2026-05-07 19:35 52.22425 4.56679 2430 ft 182 kts 61°
2026-05-07 19:35 52.23061 4.58414 2184 ft 173 kts 60°
2026-05-07 19:36 52.23667 4.60010 1967 ft 158 kts 59°
2026-05-07 19:36 52.24225 4.61469 1752 ft 151 kts 60°
2026-05-07 19:36 52.24790 4.62953 1549 ft 154 kts 59°
2026-05-07 19:36 52.25329 4.64362 1351 ft 145 kts 59°
2026-05-07 19:37 52.25847 4.65718 1159 ft 136 kts 59°
2026-05-07 19:37 52.26336 4.67045 1016 ft 136 kts 58°
2026-05-07 19:37 52.26858 4.68345 796 ft 137 kts 59°
2026-05-07 19:37 52.27353 4.69669 615 ft 137 kts 58°
2026-05-07 19:38 52.27861 4.70977 407 ft 137 kts 58°
2026-05-07 19:38 52.28369 4.72291 256 ft 138 kts 58°
2026-05-07 19:38 52.28876 4.73627 72 ft 139 kts 59°
2026-05-07 19:38 52.29366 4.74908 -3 ft 118 kts 58°
2026-05-07 19:39 52.29722 4.75835 -3 ft 74 kts 58°
2026-05-07 19:39 52.29914 4.76334 -5 ft 29 kts 57°
2026-05-07 19:39 52.30040 4.76550 -3 ft 26 kts 29°
2026-05-07 19:39 52.30190 4.76680 -2 ft 23 kts 28°
2026-05-07 19:40 52.30312 4.76737 -2 ft 18 kts 341°
2026-05-07 19:40 52.30347 4.76660 -2 ft 9 kts 238°
2026-05-07 19:40 52.30314 4.76572 -2 ft 10 kts 238°
2026-05-07 19:40 52.30277 4.76476 -2 ft 11 kts 238°
2026-05-07 19:41 52.30236 4.76369 -2 ft 12 kts 237°
2026-05-07 19:41 52.30192 4.76253 -2 ft 12 kts 239°
2026-05-07 19:41 52.30145 4.76128 -2 ft 13 kts 236°
2026-05-07 19:41 52.30093 4.75993 -2 ft 15 kts 238°
2026-05-07 19:42 52.30033 4.75843 -2 ft 16 kts 239°
2026-05-07 19:42 52.29977 4.75694 -2 ft 16 kts 238°
2026-05-07 19:42 52.29917 4.75536 -2 ft 17 kts 238°
2026-05-07 19:42 52.29853 4.75374 -2 ft 17 kts 227°
2026-05-07 19:43 52.29756 4.75282 -2 ft 14 kts 192°
2026-05-07 19:43 52.29699 4.75292 -2 ft 4 kts 160°
2026-05-07 19:43 52.29692 4.75296 -2 ft 1 kts 158°
2026-05-07 19:43 52.29685 4.75302 -2 ft 2 kts 155°
2026-05-07 19:44 52.29656 4.75328 -2 ft 9 kts 149°
2026-05-07 19:44 52.29570 4.75415 -3 ft 20 kts 147°
2026-05-07 19:44 52.29455 4.75538 -2 ft 16 kts 146°
2026-05-07 19:44 52.29451 4.75663 -2 ft 9 kts 52°
2026-05-07 19:45 52.29455 4.75672 -2 ft 1 kts 52°
2026-05-07 19:45 52.29459 4.75683 -2 ft 2 kts 59°
2026-05-07 19:45 52.29478 4.75737 -2 ft 9 kts 59°
2026-05-07 19:45 52.29480 4.75844 -2 ft 11 kts 139°
2026-05-07 19:46 52.29416 4.75911 -2 ft 7 kts 149°
2026-05-07 19:46 52.29396 4.75930 -2 ft 3 kts 148°
2026-05-07 19:46 52.29391 4.75936 -2 ft 0 kts 149°